• Em Portugal
  • Lista de países
  • Para 7 dias
  • Temperatura da água
  • Mapas de satélite
  • Mapa do tempo
  • Widgets de tempo
  • user-avatar
    Iniciar Sessão

    Previsão horária em Hirocastra

    Hoje, 23 Junho, Sábado

    Tempo Temperatura Precipitação Vento Pressão Humidade
    00:00 +13°C° 0 mm 2 m/s 651 mmHg 90%
    01:00 +13°C° 0 mm 2 m/s 650 mmHg 93%
    02:00 +12°C° 0 mm 2 m/s 650 mmHg 92%
    03:00 +12°C° 0 mm 2 m/s 651 mmHg 92%
    04:00 +12°C° 0 mm 1 m/s 651 mmHg 92%
    05:00 +13°C° 0,1 mm 1 m/s 651 mmHg 88%
    06:00 +14°C° 0,1 mm 1 m/s 651 mmHg 83%
    07:00 +15°C° 0 mm 1 m/s 652 mmHg 78%
    08:00 +16°C° 0,5 mm 1 m/s 652 mmHg 76%
    09:00 +16°C° 0,5 mm 1 m/s 652 mmHg 75%
    10:00 +16°C° 0,5 mm 1 m/s 653 mmHg 73%
    11:00 +18°C° 0,4 mm 1 m/s 653 mmHg 70%
    12:00 +18°C° 0,4 mm 2 m/s 653 mmHg 67%
    13:00 +18°C° 0 mm 2 m/s 653 mmHg 67%
    14:00 +18°C° 0,6 mm 2 m/s 653 mmHg 68%
    15:00 +18°C° 0,6 mm 2 m/s 653 mmHg 69%
    16:00 +18°C° 0,6 mm 3 m/s 653 mmHg 70%
    17:00 +17°C° 0,3 mm 3 m/s 653 mmHg 73%
    18:00 +16°C° 0,3 mm 3 m/s 652 mmHg 77%
    19:00 +14°C° 0,3 mm 3 m/s 652 mmHg 81%
    20:00 +13°C° 0 mm 3 m/s 652 mmHg 82%
    21:00 +12°C° 0 mm 3 m/s 652 mmHg 83%
    22:00 +11°C° 0 mm 3 m/s 652 mmHg 84%
    23:00 +12°C° 0 mm 2 m/s 652 mmHg 84%

    Amanhã, 24 Junho, Domingo

    Tempo Temperatura Precipitação Vento Pressão Humidade
    00:00 +12°C° 0 mm 2 m/s 652 mmHg 83%
    01:00 +10°C° 0 mm 2 m/s 652 mmHg 83%
    02:00 +10°C° 0 mm 2 m/s 652 mmHg 82%
    03:00 +9°C° 0 mm 2 m/s 652 mmHg 81%
    04:00 +9°C° 0 mm 2 m/s 651 mmHg 81%
    05:00 +10°C° 0 mm 2 m/s 652 mmHg 77%
    06:00 +13°C° 0 mm 2 m/s 652 mmHg 73%
    07:00 +14°C° 0 mm 2 m/s 652 mmHg 69%
    08:00 +15°C° 0,1 mm 2 m/s 653 mmHg 65%
    09:00 +18°C° 0,1 mm 1 m/s 653 mmHg 62%
    10:00 +19°C° 0,1 mm 1 m/s 654 mmHg 59%
    11:00 +18°C° 0,3 mm 2 m/s 654 mmHg 59%
    12:00 +19°C° 0,3 mm 2 m/s 653 mmHg 58%
    13:00 +19°C° 0,3 mm 3 m/s 653 mmHg 58%
    14:00 +19°C° 0,2 mm 3 m/s 653 mmHg 58%
    15:00 +19°C° 0,2 mm 3 m/s 653 mmHg 59%
    16:00 +19°C° 0,2 mm 3 m/s 653 mmHg 59%
    17:00 +17°C° 0,1 mm 3 m/s 652 mmHg 64%
    18:00 +16°C° 0,1 mm 3 m/s 652 mmHg 69%
    19:00 +13°C° 0,1 mm 3 m/s 652 mmHg 74%
    20:00 +14°C° 0 mm 2 m/s 652 mmHg 76%
    21:00 +13°C° 0 mm 2 m/s 652 mmHg 77%
    22:00 +12°C° 0 mm 2 m/s 652 mmHg 79%
    23:00 +12°C° 0 mm 2 m/s 652 mmHg 79%

    Depois de amanhã, 25 Junho, Segunda-feira

    Tempo Temperatura Precipitação Vento Pressão Humidade
    00:00 +12°C° 0 mm 2 m/s 651 mmHg 80%
    01:00 +10°C° 0 mm 2 m/s 651 mmHg 81%
    02:00 +10°C° 0 mm 2 m/s 651 mmHg 82%
    03:00 +10°C° 0 mm 2 m/s 651 mmHg 83%
    04:00 +10°C° 0 mm 2 m/s 650 mmHg 84%
    05:00 +12°C° 0 mm 2 m/s 651 mmHg 80%
    06:00 +13°C° 0 mm 2 m/s 651 mmHg 76%
    07:00 +15°C° 0 mm 2 m/s 652 mmHg 73%
    08:00 +16°C° 0,3 mm 2 m/s 652 mmHg 69%
    09:00 +17°C° 0,3 mm 2 m/s 652 mmHg 64%
    10:00 +19°C° 0,3 mm 1 m/s 652 mmHg 60%
    11:00 +18°C° 0,9 mm 1 m/s 652 mmHg 62%
    12:00 +18°C° 0,9 mm 1 m/s 652 mmHg 64%
    13:00 +18°C° 0,9 mm 1 m/s 652 mmHg 66%
    14:00 +16°C° 1,1 mm 1 m/s 652 mmHg 69%
    15:00 +16°C° 1,1 mm 2 m/s 651 mmHg 72%
    16:00 +15°C° 1,1 mm 2 m/s 651 mmHg 75%
    17:00 +15°C° 0,3 mm 2 m/s 651 mmHg 77%
    18:00 +14°C° 0,3 mm 2 m/s 651 mmHg 80%
    19:00 +13°C° 0,3 mm 2 m/s 651 mmHg 82%
    20:00 +13°C° 0,3 mm 2 m/s 651 mmHg 83%
    21:00 +12°C° 0,3 mm 2 m/s 651 mmHg 85%
    22:00 +12°C° 0,3 mm 2 m/s 651 mmHg 86%
    23:00 +12°C° 0,2 mm 2 m/s 650 mmHg 86%

    26 Junho, Terça-feira

    Tempo Temperatura Precipitação Vento Pressão Humidade
    00:00 +10°C° 0,2 mm 2 m/s 650 mmHg 87%
    01:00 +10°C° 0,2 mm 2 m/s 650 mmHg 87%
    02:00 +10°C° 0,2 mm 2 m/s 650 mmHg 87%
    03:00 +9°C° 0,2 mm 2 m/s 649 mmHg 87%
    04:00 +9°C° 0,2 mm 2 m/s 649 mmHg 87%
    05:00 +10°C° 0,1 mm 2 m/s 649 mmHg 84%
    06:00 +12°C° 0,1 mm 2 m/s 649 mmHg 81%
    07:00 +13°C° 0,1 mm 2 m/s 650 mmHg 78%
    08:00 +14°C° 0,1 mm 2 m/s 650 mmHg 73%
    09:00 +16°C° 0,1 mm 1 m/s 650 mmHg 67%
    10:00 +18°C° 0,1 mm 1 m/s 650 mmHg 61%
    11:00 +17°C° 0,6 mm 2 m/s 650 mmHg 63%
    12:00 +17°C° 0,6 mm 2 m/s 650 mmHg 64%
    13:00 +17°C° 0,6 mm 2 m/s 650 mmHg 65%
    14:00 +16°C° 1,2 mm 2 m/s 650 mmHg 70%
    15:00 +15°C° 1,2 mm 2 m/s 649 mmHg 75%
    16:00 +14°C° 1,2 mm 2 m/s 649 mmHg 80%
    17:00 +14°C° 1 mm 2 m/s 649 mmHg 83%
    18:00 +13°C° 1 mm 2 m/s 649 mmHg 86%
    19:00 +12°C° 1 mm 2 m/s 649 mmHg 89%
    20:00 +12°C° 0,9 mm 2 m/s 649 mmHg 90%
    21:00 +12°C° 0,9 mm 2 m/s 649 mmHg 91%
    22:00 +12°C° 0,9 mm 1 m/s 648 mmHg 91%
    23:00 +12°C° 1,2 mm 2 m/s 648 mmHg 92%

    27 Junho, Quarta-feira

    Tempo Temperatura Precipitação Vento Pressão Humidade
    00:00 +12°C° 1,2 mm 2 m/s 648 mmHg 92%
    01:00 +10°C° 1,2 mm 2 m/s 648 mmHg 92%
    02:00 +10°C° 1,5 mm 2 m/s 647 mmHg 92%
    03:00 +10°C° 1,5 mm 2 m/s 647 mmHg 92%
    04:00 +10°C° 1,5 mm 2 m/s 647 mmHg 92%
    05:00 +12°C° 1 mm 2 m/s 647 mmHg 91%
    06:00 +12°C° 1 mm 2 m/s 647 mmHg 89%
    07:00 +12°C° 1 mm 2 m/s 648 mmHg 88%
    08:00 +13°C° 0,3 mm 2 m/s 648 mmHg 83%
    09:00 +14°C° 0,3 mm 1 m/s 648 mmHg 79%
    10:00 +15°C° 0,3 mm 1 m/s 649 mmHg 75%
    11:00 +15°C° 0,5 mm 1 m/s 649 mmHg 74%
    12:00 +16°C° 0,5 mm 1 m/s 649 mmHg 72%
    13:00 +16°C° 0,5 mm 2 m/s 649 mmHg 71%
    14:00 +16°C° 1,1 mm 1 m/s 649 mmHg 73%
    15:00 +16°C° 1,1 mm 1 m/s 649 mmHg 74%
    16:00 +16°C° 1,1 mm 1 m/s 649 mmHg 75%
    17:00 +15°C° 0,6 mm 1 m/s 649 mmHg 78%
    18:00 +14°C° 0,6 mm 1 m/s 649 mmHg 82%
    19:00 +14°C° 0,6 mm 1 m/s 648 mmHg 85%
    20:00 +13°C° 0,1 mm 1 m/s 649 mmHg 85%
    21:00 +12°C° 0,1 mm 2 m/s 649 mmHg 86%
    22:00 +12°C° 0,1 mm 2 m/s 649 mmHg 87%
    23:00 +12°C° 0 mm 2 m/s 649 mmHg 87%

    28 Junho, Quinta-feira

    Tempo Temperatura Precipitação Vento Pressão Humidade
    00:00 +11°C° 0 mm 1 m/s 648 mmHg 88%
    01:00 +11°C° 0 mm 1 m/s 648 mmHg 88%
    02:00 +11°C° 0 mm 1 m/s 648 mmHg 88%
    03:00 +10°C° 0 mm 1 m/s 648 mmHg 88%
    04:00 +10°C° 0 mm 1 m/s 648 mmHg 88%
    05:00 +12°C° 0 mm 1 m/s 649 mmHg 84%
    06:00 +13°C° 0 mm 1 m/s 649 mmHg 80%
    07:00 +15°C° 0 mm 1 m/s 650 mmHg 76%
    08:00 +16°C° 0,1 mm 1 m/s 650 mmHg 71%
    09:00 +18°C° 0,1 mm 1 m/s 650 mmHg 65%
    10:00 +20°C° 0,1 mm 1 m/s 651 mmHg 60%
    11:00 +19°C° 0,4 mm 2 m/s 651 mmHg 61%
    12:00 +19°C° 0,4 mm 2 m/s 651 mmHg 62%
    13:00 +19°C° 0,4 mm 3 m/s 651 mmHg 63%
    14:00 +19°C° 0,5 mm 3 m/s 651 mmHg 65%
    15:00 +19°C° 0,5 mm 3 m/s 651 mmHg 67%
    16:00 +19°C° 0,5 mm 3 m/s 651 mmHg 69%
    17:00 +17°C° 0,3 mm 3 m/s 651 mmHg 73%
    18:00 +16°C° 0,3 mm 3 m/s 651 mmHg 78%
    19:00 +14°C° 0,3 mm 3 m/s 650 mmHg 83%
    20:00 +13°C° 0,1 mm 3 m/s 651 mmHg 84%
    21:00 +13°C° 0,1 mm 2 m/s 651 mmHg 85%
    22:00 +13°C° 0,1 mm 2 m/s 651 mmHg 86%
    23:00 +12°C° 0 mm 2 m/s 651 mmHg 86%
    Mostrar mais